FREGAT R/B, 41551

Orbit data source: Space-Track

FREGAT R/B, 41551 is space debris originally from a launch on Tue, 24 May 2016 UTC launched from the French Guiana (FRGUI). Debris objects in space refer to the collection of defunct objects orbiting the Earth. Examples of debris include non-operational satellites, rocket bodies, and fragments generated from explosions, collisions, or faulty payload assembly.

Loading next visibility...
Identifier
41551, 2016-030C
Orbit
Active
Country
Flag of CISCIS
Related business
Manufacturer
Lavochkin
Mission
Spacecraft
Bus & Motor
FREGAT, Unknown motor
Mass
1,050 kg wet, 1,050 kg dry
Launch date (UTC)
2016-05-24 (9 years ago)
Launch vehicle
Unknown
Launch site
French Guiana (FRGUI)
Object type
Payload
Rocket body
Debris
Shape & HBR
Irr, 1.6 m
Radar Cross Section
11.055 m², Large (>1 m²)

Expand to show TLE details & history
Last TLE update: 3 days ago

TLE from 3 days ago
0 FREGAT R/B
1 41551U 16030C   25258.05289523  .00000030  00000-0  00000-0 0  9995
2 41551  55.0782 232.3780 0022420 233.1801 126.5897  1.67598002 57017
Epoch: 2025-09-15T01:16Z
TLE epoch observation values (Epoch: 2025-09-15T01:16:10.147Z)
Latitude
0.00003°
Longitude
-140.93365°
Altitude
23,600.2 km
Speed
3.644 km/s
True Right ascension
15h 29m 29s
True Declination
0° 00' 00"
Sunlit
Object was in daylight at epoch
Visualization orbit readout
Latitude
Unknown
Longitude
Unknown
Altitude
Unknown
Speed
Unknown
Apparent Right ascension
Unknown
Apparent Declination
Unknown
Sunlit
N/A
Visualization observer readout
Local Sidereal Time
19:14:39
Azimuth
Unknown
Elevation
Unknown
Doppler factor
Unknown
Orbital elements
Apogee altitude
23,626.978 km
Perigee altitude
23,492.736 km
Semi-major axis
29,937.994 km
Eccentricity
0.00224
Inclination
55.0782°
RAAN
232.378°
Arg. of periapsis
233.1801°
True anomaly
126.79564°
Mean anomaly
126.5897°
Eccentric anomaly
126.6927°
Mean motion
0.419 °/min
Orbital period
859.2 mins
BSTAR
0
Loading maneuver chart data...
Computing Atmospheric mass density...
Loading historical data...
Loading historical data...
Loading historical data...
Loading historical data...
Loading historical data...
Loading historical data...
Loading historical data...
Other satellites on launch #30 in the year 2016 (2016-05-24 UTC)

Documentation

Showing up to 5 results
|